Terug naar catalogus

STARLINK-3811

ActiefCommunicatieVLEO
NORAD 52383·PAYLOAD·🇺🇸 United States

Gelanceerd Apr 29, 2022 vanaf Cape Canaveral Space Force Station

Loading…

Volgende Passages (komende 24 uur)

TLE

VersSource: CelesTrak SupGP

Epoch: Sep 15, 2026, 03:03 UTC

1 52383C 22045BE  26258.12756944 -.00007647  00000+0 -23206-3 0  2584
2 52383  53.1586  34.9272 0001128  89.0748 160.1053 15.33551504    15

Volg STARLINK-3811 in realtime met AllMySat

Download on the App Store